Simultaneous Nadir Overpasses (SNOs) Predictions

Prediction of SNOs between FY3D and AQUA Satellite Orbit:

Table of predicted SNOs for the next 14.0 days since TLE Epoch: 10/30/2021
Index Date (FY3D) Time (FY3D) Lat,Lon (FY3D) SZA (FY3D ) Date (AQUA) Time (AQUA) Lat,Lon (AQUA) SZA (AQUA ) Distance(km) Time Diff (sec)
1 10/30/2021 06:56:07 -69.81,-103.29 96.36 10/30/2021 06:56:44 -69.81,-103.27 96.35 0.75 37
2 10/30/2021 07:45:40 65.88, 68.97 79.96 10/30/2021 07:45:02 65.89, 68.93 79.95 1.71 38
3 11/01/2021 23:12:29 -70.12, 12.20 95.20 11/01/2021 23:13:20 -70.13, 12.16 95.19 1.36 51
4 11/02/2021 00:02:25 67.46,-176.86 82.30 11/02/2021 00:02:00 67.46,-176.84 82.29 1.23 25
5 11/04/2021 15:29:02 -70.95, 126.80 93.56 11/04/2021 15:30:06 -70.95, 126.81 93.56 0.43 64
6 11/04/2021 16:18:45 67.63, -61.11 83.28 11/04/2021 16:18:34 67.64, -61.16 83.29 2.24 11
7 11/07/2021 07:47:41 -77.71,-136.35 85.57 11/07/2021 07:48:55 -77.92,-135.46 85.43 30.74 74
8 11/07/2021 08:35:18 68.50, 53.74 84.90 11/07/2021 08:35:20 68.51, 53.69 84.91 1.97 2
9 11/07/2021 09:24:50 -64.63,-134.59 98.70 11/07/2021 09:23:36 -64.62,-134.60 98.74 1.66 74
10 11/10/2021 00:52:00 69.84, 167.79 86.95 11/10/2021 00:52:14 69.83, 167.84 86.94 2.17 14
11 11/10/2021 01:41:24 -65.56, -19.57 97.07 11/10/2021 01:40:23 -65.57, -19.61 97.08 2.13 61
12 11/12/2021 17:08:20 70.06, -76.59 87.90 11/12/2021 17:08:47 70.07, -76.60 87.90 0.45 27



Historial Predications of SNOs between FY3D and AQUA
